Location: Lake Arresoe
(56.0000°N, 12.5000°E)
Time: 12:28:00
(UTC+02:00)

Cosmos 2058 - Visible Passes

Search period start: 07 August 2020 00:00
Search period end: 17 August 2020 00:00
Orbit: 561 x 584 km, 82.5° (Epoch: 07 August)

Date Brightness Start Highest point End Pass type
(mag) Time Alt. Az. Time Alt. Az. Time Alt. Az.
07 Aug 6.5 04:25:31 10° NNE 04:27:20 12° NE 04:29:08 10° E visible
08 Aug 6.3 04:27:58 10° NNE 04:30:22 15° ENE 04:32:46 10° E visible
09 Aug 6.1 04:30:32 10° NNE 04:33:23 18° ENE 04:36:14 10° ESE visible
10 Aug 6.0 04:33:12 10° NNE 04:36:23 21° ENE 04:39:35 10° ESE visible
11 Aug 5.6 04:35:54 10° N 04:39:23 25° ENE 04:42:50 10° ESE visible
12 Aug 5.2 04:38:38 10° N 04:42:20 30° ENE 04:46:03 10° SE visible
13 Aug 4.8 04:41:25 10° N 04:45:18 36° ENE 04:49:11 10° SE visible
14 Aug 4.3 04:44:13 10° N 04:48:14 44° ENE 04:52:15 10° SE visible
15 Aug 6.5 03:12:30 10° NE 03:13:13 10° NE 03:13:57 10° ENE visible
15 Aug 3.8 04:47:02 10° N 04:51:09 54° ENE 04:55:16 10° SSE visible
16 Aug 6.2 03:14:29 10° NNE 03:16:17 12° NE 03:18:04 10° E visible
16 Aug 3.4 04:49:52 10° N 04:54:03 67° ENE 04:58:14 10° SSE visible
